User: anonymous   Login
Location: Young's Pond
(41.2695°N, 72.7766°W)
Time: 20:16:50
(UTC-04:00)
Language:

Spot 4 - Orbit

View from above orbital plane
View from above orbital plane
View from above satellite
View from above satellite

Ground track
Ground track

The orbit data is extracted from the following two-line orbital elements,

1 25260U 98017A   15088.54803365  .00000512  00000-0  13463-3 0  9994
2 25260 098.4229 159.4511 0012032 238.7985 121.2033 14.53218279884102
Epoch (UTC): 29 March 2015 13:09:10
Eccentricity: 0.0012032
inclination: 98.4229°
perigee height: 706 km
apogee height: 723 km
right ascension of ascending node: 159.4511°
argument of perigee: 238.7985°
revolutions per day: 14.53218279
mean anomaly at epoch: 121.2033°
orbit number at epoch: 88410

The dashed part of the orbit path shows where the satellite is in the earth's shadow,  

DLR